When you browse on this site, cookies collect data to enhance your experience and personalize the content and advertising you see.
Visit our Privacy Policy to learn more. By continuing to use the site, you agree to this use of cookies and data.
  • In Sweden
  • List of Countries
  • For 7 days
  • Water Temperature
  • Weather Map
  • Weather Widgets
  • user-avatar
    Login

    Hourly Weather Agon

    Today, 5 June, Friday

    Time Temperature Precipitation Wind Pressure Humidity
    00:00 +12°C° 0 mm 7 mps 725 mmHg 75%
    01:00 +13°C° 0 mm 6 mps 725 mmHg 75%
    02:00 +13°C° 0 mm 6 mps 725 mmHg 75%
    03:00 +13°C° 0 mm 6 mps 725 mmHg 74%
    04:00 +13°C° 0 mm 6 mps 725 mmHg 74%
    05:00 +13°C° 0 mm 6 mps 725 mmHg 73%
    06:00 +13°C° 0 mm 6 mps 725 mmHg 72%
    07:00 +14°C° 0 mm 6 mps 725 mmHg 66%
    08:00 +16°C° 0 mm 6 mps 726 mmHg 60%
    09:00 +17°C° 0 mm 6 mps 726 mmHg 55%
    10:00 +19°C° 0 mm 6 mps 726 mmHg 52%
    11:00 +21°C° 0 mm 6 mps 726 mmHg 49%
    12:00 +22°C° 0 mm 6 mps 726 mmHg 46%
    13:00 +23°C° 0 mm 6 mps 726 mmHg 46%
    14:00 +23°C° 0 mm 6 mps 725 mmHg 45%
    15:00 +24°C° 0 mm 6 mps 725 mmHg 45%
    16:00 +23°C° 0 mm 6 mps 725 mmHg 48%
    17:00 +23°C° 0 mm 5 mps 725 mmHg 50%
    18:00 +22°C° 0 mm 5 mps 725 mmHg 53%
    19:00 +21°C° 0 mm 4 mps 725 mmHg 58%
    20:00 +19°C° 0 mm 3 mps 726 mmHg 64%
    21:00 +18°C° 0 mm 2 mps 726 mmHg 70%
    22:00 +17°C° 0 mm 2 mps 726 mmHg 72%
    23:00 +17°C° 0 mm 2 mps 726 mmHg 75%

    Tomorrow, 6 June, Saturday

    Time Temperature Precipitation Wind Pressure Humidity
    00:00 +16°C° 0 mm 2 mps 726 mmHg 77%
    01:00 +16°C° 0 mm 2 mps 726 mmHg 79%
    02:00 +16°C° 0 mm 2 mps 726 mmHg 80%
    03:00 +15°C° 0 mm 2 mps 726 mmHg 82%
    04:00 +16°C° 0 mm 2 mps 725 mmHg 81%
    05:00 +16°C° 0 mm 2 mps 725 mmHg 79%
    06:00 +16°C° 0 mm 2 mps 725 mmHg 78%
    07:00 +18°C° 0 mm 2 mps 725 mmHg 73%
    08:00 +19°C° 0 mm 2 mps 725 mmHg 67%
    09:00 +20°C° 0 mm 2 mps 725 mmHg 61%
    10:00 +23°C° 0.1 mm 2 mps 725 mmHg 58%
    11:00 +24°C° 0.1 mm 2 mps 725 mmHg 55%
    12:00 +25°C° 0.1 mm 2 mps 724 mmHg 53%
    13:00 +25°C° 0.5 mm 2 mps 724 mmHg 52%
    14:00 +26°C° 0.5 mm 3 mps 724 mmHg 50%
    15:00 +26°C° 0.5 mm 3 mps 723 mmHg 49%
    16:00 +25°C° 0.6 mm 3 mps 723 mmHg 54%
    17:00 +23°C° 0.6 mm 4 mps 723 mmHg 59%
    18:00 +22°C° 0.6 mm 4 mps 723 mmHg 64%
    19:00 +21°C° 0.4 mm 4 mps 723 mmHg 69%
    20:00 +19°C° 0.4 mm 5 mps 724 mmHg 74%
    21:00 +17°C° 0.4 mm 5 mps 724 mmHg 79%
    22:00 +16°C° 0.1 mm 5 mps 724 mmHg 80%
    23:00 +16°C° 0.1 mm 5 mps 724 mmHg 82%

    Day after tomorrow, 7 June, Sunday

    Time Temperature Precipitation Wind Pressure Humidity
    00:00 +16°C° 0.1 mm 5 mps 723 mmHg 83%
    01:00 +15°C° 0 mm 5 mps 723 mmHg 84%
    02:00 +15°C° 0 mm 4 mps 723 mmHg 84%
    03:00 +15°C° 0 mm 4 mps 723 mmHg 85%
    04:00 +15°C° 0.1 mm 4 mps 723 mmHg 83%
    05:00 +15°C° 0.1 mm 4 mps 723 mmHg 82%
    06:00 +15°C° 0.1 mm 4 mps 723 mmHg 81%
    07:00 +16°C° 0 mm 5 mps 724 mmHg 76%
    08:00 +17°C° 0 mm 5 mps 724 mmHg 72%
    09:00 +19°C° 0 mm 6 mps 724 mmHg 68%
    10:00 +18°C° 0.1 mm 7 mps 724 mmHg 67%
    11:00 +18°C° 0.1 mm 7 mps 724 mmHg 66%
    12:00 +18°C° 0.1 mm 8 mps 724 mmHg 65%
    13:00 +17°C° 0.1 mm 9 mps 724 mmHg 64%
    14:00 +17°C° 0.1 mm 9 mps 724 mmHg 63%
    15:00 +17°C° 0.1 mm 10 mps 724 mmHg 62%
    16:00 +16°C° 0 mm 10 mps 724 mmHg 62%
    17:00 +16°C° 0 mm 10 mps 725 mmHg 63%
    18:00 +15°C° 0 mm 9 mps 725 mmHg 64%
    19:00 +13°C° 0 mm 9 mps 726 mmHg 65%
    20:00 +12°C° 0 mm 8 mps 726 mmHg 67%
    21:00 +12°C° 0 mm 8 mps 727 mmHg 69%
    22:00 +11°C° 0 mm 8 mps 727 mmHg 69%
    23:00 +10°C° 0 mm 8 mps 727 mmHg 70%

    8 June, Monday

    Time Temperature Precipitation Wind Pressure Humidity
    00:00 +10°C° 0 mm 8 mps 727 mmHg 71%
    01:00 +10°C° 0 mm 7 mps 727 mmHg 70%
    02:00 +9°C° 0 mm 7 mps 727 mmHg 69%
    03:00 +9°C° 0 mm 6 mps 727 mmHg 69%
    04:00 +9°C° 0 mm 6 mps 727 mmHg 68%
    05:00 +10°C° 0 mm 6 mps 727 mmHg 68%
    06:00 +10°C° 0 mm 7 mps 727 mmHg 68%
    07:00 +11°C° 0 mm 7 mps 727 mmHg 63%
    08:00 +14°C° 0 mm 7 mps 727 mmHg 58%
    09:00 +15°C° 0 mm 7 mps 728 mmHg 53%
    10:00 +17°C° 0 mm 7 mps 728 mmHg 52%
    11:00 +18°C° 0 mm 8 mps 727 mmHg 50%
    12:00 +20°C° 0 mm 8 mps 727 mmHg 49%
    13:00 +20°C° 0 mm 8 mps 727 mmHg 47%
    14:00 +21°C° 0 mm 8 mps 727 mmHg 45%
    15:00 +21°C° 0 mm 8 mps 727 mmHg 44%
    16:00 +20°C° 0 mm 8 mps 727 mmHg 47%
    17:00 +20°C° 0 mm 8 mps 727 mmHg 50%
    18:00 +18°C° 0 mm 8 mps 727 mmHg 52%
    19:00 +17°C° 0 mm 8 mps 728 mmHg 58%
    20:00 +16°C° 0 mm 7 mps 728 mmHg 63%
    21:00 +14°C° 0 mm 7 mps 729 mmHg 68%
    22:00 +14°C° 0 mm 6 mps 729 mmHg 70%
    23:00 +13°C° 0 mm 6 mps 729 mmHg 72%

    9 June, Tuesday

    Time Temperature Precipitation Wind Pressure Humidity
    00:00 +13°C° 0 mm 6 mps 729 mmHg 74%
    01:00 +13°C° 0 mm 6 mps 729 mmHg 75%
    02:00 +11°C° 0 mm 6 mps 729 mmHg 75%
    03:00 +12°C° 0 mm 5 mps 729 mmHg 76%
    04:00 +13°C° 0 mm 5 mps 729 mmHg 75%
    05:00 +13°C° 0 mm 5 mps 729 mmHg 74%
    06:00 +13°C° 0 mm 6 mps 729 mmHg 73%
    07:00 +15°C° 0 mm 6 mps 729 mmHg 68%
    08:00 +16°C° 0 mm 7 mps 729 mmHg 62%
    09:00 +17°C° 0 mm 7 mps 729 mmHg 56%
    10:00 +20°C° 0 mm 7 mps 729 mmHg 53%
    11:00 +21°C° 0 mm 7 mps 730 mmHg 49%
    12:00 +22°C° 0 mm 7 mps 730 mmHg 46%
    13:00 +23°C° 0 mm 7 mps 729 mmHg 45%
    14:00 +23°C° 0 mm 7 mps 729 mmHg 44%
    15:00 +23°C° 0 mm 7 mps 729 mmHg 43%
    16:00 +23°C° 0 mm 7 mps 729 mmHg 45%
    17:00 +22°C° 0 mm 8 mps 729 mmHg 48%
    18:00 +21°C° 0 mm 8 mps 729 mmHg 50%
    19:00 +20°C° 0 mm 8 mps 730 mmHg 54%
    20:00 +17°C° 0 mm 7 mps 730 mmHg 57%
    21:00 +15°C° 0 mm 7 mps 731 mmHg 60%
    22:00 +15°C° 0 mm 7 mps 731 mmHg 62%
    23:00 +14°C° 0 mm 6 mps 731 mmHg 64%

    10 June, Wednesday

    Time Temperature Precipitation Wind Pressure Humidity
    00:00 +14°C° 0 mm 6 mps 731 mmHg 66%
    01:00 +13°C° 0 mm 6 mps 730 mmHg 67%
    02:00 +13°C° 0 mm 5 mps 730 mmHg 67%
    03:00 +12°C° 0 mm 5 mps 730 mmHg 68%
    04:00 +13°C° 0 mm 5 mps 730 mmHg 67%
    05:00 +13°C° 0 mm 5 mps 730 mmHg 65%
    06:00 +13°C° 0 mm 5 mps 730 mmHg 64%
    07:00 +15°C° 0 mm 5 mps 730 mmHg 60%
    08:00 +16°C° 0 mm 5 mps 730 mmHg 55%
    09:00 +19°C° 0 mm 5 mps 730 mmHg 50%
    10:00 +20°C° 0 mm 5 mps 730 mmHg 45%
    11:00 +22°C° 0 mm 5 mps 730 mmHg 41%
    12:00 +23°C° 0 mm 4 mps 730 mmHg 36%
    13:00 +25°C° 0 mm 4 mps 729 mmHg 35%
    14:00 +25°C° 0 mm 4 mps 729 mmHg 34%
    15:00 +26°C° 0 mm 4 mps 729 mmHg 33%
    16:00 +25°C° 0 mm 4 mps 729 mmHg 34%
    17:00 +25°C° 0 mm 4 mps 729 mmHg 36%
    18:00 +25°C° 0 mm 4 mps 728 mmHg 38%
    19:00 +22°C° 0 mm 4 mps 729 mmHg 46%
    20:00 +20°C° 0 mm 4 mps 729 mmHg 53%
    21:00 +19°C° 0 mm 4 mps 729 mmHg 61%
    22:00 +18°C° 0 mm 4 mps 729 mmHg 63%
    23:00 +18°C° 0 mm 4 mps 729 mmHg 65%
    Show more